CAPE
77 75 29 0 0 0 0 0 0 3 49 76 80 130 223 241 199 129 172 165 115 87
0 0 0 0 0 0 0 0 0 0 0 0 0 0 1 13 3 9 12 18 41 30
0 0 0 0 0 0 0 0 0 0 0 0 0 0 0 0 0 0 0 0 0 0
0 0 0 0 0 0 0 0 0 0 0 0 0 0 0 0 0 0 0 0 0 0
0 0 0 0 0 0 0 0 0 0 0 0 0 0 0 0 0 0 0 0 0 0
0 0 0 0 0 0 0 0 0 0 0 0 0 0 0 0 0 0 0 0 0 0
0 0 0 0 0 0 0 0 0 0 0 0 0 0 0 0 0 0 0 0 0 0
0 0 0 0 0 0 0 0 0 0 0 0 0 0 0 0 0 0 0 0 0 0
0 0 0 0 0 0 0 0 0 0 0 0 0 0 0 0 0 0 0 0 0 0
0 0 0 0 0 0 0 0 0 0 0 0 0 0 0 0 0 0 0 0 0 0
0 0 0 0 0 0 0 0 0 0 0 0 0 0 0 0 0 0 0 0 0 0
0 0 0 0 0 0 0 0 0 0 0 0 0 0 0 0 1 2 2 1 1 0
0 0 0 0 0 0 0 1 0 0 0 0 0 0 0 0 1 0 0 1 1 2
0 0 0 0 0 0 0 0 0 0 0 0 0 0 0 0 1 2 1 1 0 1
CIN
-348 -326 -359 -16 0 0 0 0 0 -108 -293 -267 -226 -212 -195 -175 -122 -149 -140 -119 -155 -163
0 0 0 0 0 0 0 0 0 0 0 0 0 0 -150 -253 -207 -240 -208 -190 -182 -202
0 0 0 0 0 0 0 0 0 0 0 0 0 0 0 0 0 0 0 0 0 0
0 0 0 0 0 0 0 0 0 0 0 0 0 0 0 0 0 0 0 0 0 0
0 0 0 0 0 0 0 0 0 0 0 0 0 0 0 0 0 0 0 0 0 0
0 0 0 0 0 0 0 0 0 0 0 0 0 0 0 0 0 0 0 0 0 0
0 0 0 0 0 0 0 0 0 0 0 0 0 0 0 0 0 0 0 0 0 0
0 0 0 0 0 0 0 0 0 0 0 0 0 0 0 0 0 0 0 0 0 0
0 0 0 0 0 0 0 0 0 0 0 0 0 0 0 0 0 0 0 0 0 0
0 0 0 0 0 0 0 0 0 0 0 0 0 0 0 0 0 0 0 0 0 0
0 0 0 0 0 0 0 0 0 0 0 0 0 0 0 0 0 0 0 0 0 0
0 0 0 0 0 0 0 0 0 0 0 0 0 0 0 0 0 0 -0 0 0 0
0 0 0 0 0 0 0 0 0 0 0 0 0 0 0 0 0 0 0 -0 -1 -1
0 0 0 0 0 0 0 0 0 0 0 0 0 0 0 0 0 0 0 0 -3 -2
Wind_Speed
15 16 20 23 25 27 30 31 30 31 32 33 32 32 29 29 29 29 29 29 28 29
12 15 19 22 24 25 27 27 28 28 29 31 32 33 33 32 33 31 30 28 28 28
13 15 19 21 24 25 26 28 29 30 31 31 32 32 32 32 30 31 30 29 27 28
14 18 19 21 23 25 27 29 30 32 33 32 33 33 32 32 31 32 31 29 29 29
17 19 20 21 24 26 28 29 30 31 32 34 35 35 35 35 33 34 34 33 33 33
19 21 23 24 26 27 29 31 32 33 35 36 37 36 36 36 36 35 35 34 34 34
23 24 25 26 28 30 31 33 34 35 36 37 38 38 38 39 39 38 37 36 36 37
25 27 28 30 32 34 36 38 39 41 41 41 42 40 42 43 43 43 43 41 41 41
28 30 32 34 35 37 39 39 40 41 42 42 41 42 43 43 43 43 44 45 44 43
32 35 36 38 39 41 41 41 41 41 40 41 41 41 41 40 39 39 39 39 39 40
35 36 38 37 38 37 36 36 36 36 36 37 37 38 38 38 37 37 37 37 37 38
36 36 35 35 35 34 34 35 36 36 37 37 37 37 38 37 37 37 36 36 34 34
35 34 34 35 35 34 35 34 34 35 35 35 34 36 37 37 36 36 35 35 35 33
34 34 33 33 32 33 32 33 34 34 34 33 34 35 36 36 34 33 33 34 34 32
Wind_Direction
301 301 308 314 315 313 311 314 316 314 309 308 305 305 303 300 300 300 301 300 298 296
321 316 322 323 321 320 320 321 319 318 317 316 313 309 305 304 301 303 303 303 301 297
333 326 321 323 321 320 318 318 317 318 318 317 317 317 314 312 310 306 306 305 303 301
333 336 331 325 321 317 318 317 317 318 319 320 319 320 318 317 314 310 308 308 307 304
347 345 336 332 327 324 323 325 326 325 323 322 320 319 317 314 314 310 308 305 301 299
342 342 332 330 333 334 331 329 328 325 322 320 318 317 316 314 312 310 308 306 304 302
338 339 339 338 336 333 330 327 324 323 321 318 316 314 313 311 309 307 306 305 303 302
344 341 338 334 331 329 326 323 322 319 317 316 315 313 311 309 307 305 303 302 301 300
343 339 335 333 331 329 326 325 323 321 319 317 317 315 313 312 308 306 304 302 301 299
336 332 331 330 329 328 327 327 326 325 324 322 321 320 319 317 316 314 312 310 308 306
336 335 334 336 336 336 337 337 335 333 332 330 329 328 326 323 320 317 315 313 312 309
341 341 344 343 343 344 344 342 340 339 338 336 334 332 329 327 324 321 318 317 316 315
346 348 347 346 346 347 346 346 347 344 344 342 342 340 337 334 331 326 323 320 317 316
349 350 352 352 352 351 352 351 349 349 349 349 348 347 346 344 341 335 329 323 320 321